| time (UTC) | temp F | wind direction | speed MPH | gust MPH | rain 1hr in | rain 24hr in | rain mn in | humidity % | barometer mb |
| 20260510051032 | 73 | 90 | 7.0 | 10.0 | 0.00 | 0.00 | 0.00 | 58 | 1022.4 |
| 20260510050530 | 73 | 56 | 6.0 | 10.0 | 0.00 | 0.00 | 0.00 | 58 | 1022.2 |
| 20260510050027 | 73 | 90 | 10.0 | 11.0 | 0.00 | 0.00 | 0.00 | 58 | 1022.1 |
| 20260510045526 | 73 | 90 | 9.0 | 9.0 | 0.00 | 0.00 | 0.00 | 58 | 1022.1 |
| 20260510045022 | 73 | 90 | 8.0 | 13.0 | 0.00 | 0.00 | 0.00 | 59 | 1022.1 |
| 20260510044520 | 73 | 90 | 6.0 | 8.0 | 0.00 | 0.00 | 0.00 | 58 | 1022.1 |
| 20260510044018 | 73 | 135 | 7.0 | 10.0 | 0.00 | 0.00 | 0.00 | 58 | 1022.3 |
| 20260510043516 | 73 | 90 | 6.0 | 9.0 | 0.00 | 0.00 | 0.00 | 58 | 1022.2 |
| 20260510043014 | 73 | 90 | 7.0 | 8.0 | 0.00 | 0.00 | 0.00 | 58 | 1022.2 |
| 20260510042511 | 72 | 90 | 5.0 | 7.0 | 0.00 | 0.00 | 0.00 | 58 | 1022.2 |
| 20260510042009 | 72 | 135 | 5.0 | 6.0 | 0.00 | 0.00 | 0.00 | 57 | 1022.4 |
| 20260510041506 | 72 | 90 | 2.0 | 7.0 | 0.00 | 0.00 | 0.00 | 57 | 1022.3 |
| 20260510041004 | 73 | 90 | 6.0 | 7.0 | 0.00 | 0.00 | 0.00 | 57 | 1022.4 |
| 20260510040502 | 73 | 168 | 4.0 | 6.0 | 0.00 | 0.00 | 0.00 | 56 | 1022.4 |
| 20260510035959 | 73 | 135 | 6.0 | 9.0 | 0.00 | 0.00 | 0.00 | 56 | 1022.5 |
| 20260510035457 | 73 | 112 | 5.0 | 7.0 | 0.00 | 0.00 | 0.00 | 56 | 1022.6 |
| 20260510034955 | 73 | 135 | 6.0 | 9.0 | 0.00 | 0.00 | 0.00 | 56 | 1022.9 |
| 20260510034453 | 73 | 180 | 5.0 | 10.0 | 0.00 | 0.00 | 0.00 | 57 | 1022.8 |
| 20260510033951 | 72 | 146 | 6.0 | 8.0 | 0.00 | 0.00 | 0.00 | 57 | 1022.8 |
| 20260510033449 | 72 | 135 | 7.0 | 8.0 | 0.00 | 0.00 | 0.00 | 57 | 1022.9 |
| 20260510032946 | 72 | 135 | 5.0 | 7.0 | 0.00 | 0.00 | 0.00 | 58 | 1023.0 |
| 20260510032443 | 72 | 157 | 10.0 | 10.0 | 0.00 | 0.00 | 0.00 | 58 | 1023.0 |
| 20260510031941 | 72 | 135 | 3.0 | 7.0 | 0.00 | 0.00 | 0.00 | 58 | 1023.0 |
| 20260510031439 | 72 | 135 | 9.0 | 9.0 | 0.00 | 0.00 | 0.00 | 58 | 1023.1 |
| 20260510030937 | 71 | 180 | 5.0 | 9.0 | 0.00 | 0.00 | 0.00 | 58 | 1023.0 |
| 20260510030434 | 71 | 146 | 5.0 | 9.0 | 0.00 | 0.00 | 0.00 | 59 | 1023.1 |
| 20260510025932 | 71 | 135 | 8.0 | 8.0 | 0.00 | 0.00 | 0.00 | 58 | 1023.1 |
| 20260510025445 | 71 | 135 | 6.0 | 10.0 | 0.00 | 0.00 | 0.00 | 59 | 1023.3 |
| 20260510024928 | 71 | 135 | 6.0 | 7.0 | 0.00 | 0.00 | 0.00 | 59 | 1023.3 |
| 20260510024426 | 70 | 180 | 8.0 | 8.0 | 0.00 | 0.00 | 0.00 | 59 | 1023.4 |
| 20260510024123 | 70 | 168 | 0.0 | 7.0 | 0.00 | 0.00 | 0.00 | 59 | 1023.3 |
| 20260510023620 | 70 | 135 | 6.0 | 8.0 | 0.00 | 0.00 | 0.00 | 59 | 1023.2 |
| 20260510023118 | 70 | 135 | 6.0 | 9.0 | 0.00 | 0.00 | 0.00 | 59 | 1023.2 |
| 20260510022616 | 70 | 112 | 7.0 | 10.0 | 0.00 | 0.00 | 0.00 | 60 | 1023.2 |
| 20260510022114 | 70 | 135 | 8.0 | 8.0 | 0.00 | 0.00 | 0.00 | 60 | 1023.2 |
| 20260510021612 | 70 | 146 | 7.0 | 9.0 | 0.00 | 0.00 | 0.00 | 60 | 1023.3 |
| 20260510021109 | 70 | 101 | 6.0 | 9.0 | 0.00 | 0.00 | 0.00 | 60 | 1023.3 |
| 20260510020607 | 69 | 135 | 5.0 | 10.0 | 0.00 | 0.00 | 0.00 | 60 | 1023.4 |
| 20260510020105 | 69 | 135 | 10.0 | 10.0 | 0.00 | 0.00 | 0.00 | 60 | 1023.6 |
| 20260510015603 | 69 | 135 | 7.0 | 9.0 | 0.00 | 0.00 | 0.00 | 60 | 1023.6 |
| 20260510015100 | 69 | 135 | 6.0 | 10.0 | 0.00 | 0.00 | 0.00 | 60 | 1023.8 |
| 20260510014559 | 69 | 135 | 10.0 | 10.0 | 0.00 | 0.00 | 0.00 | 60 | 1023.9 |
| 20260510014055 | 69 | 135 | 8.0 | 8.0 | 0.00 | 0.00 | 0.00 | 61 | 1023.8 |
| 20260510013553 | 69 | 112 | 9.0 | 10.0 | 0.00 | 0.00 | 0.00 | 60 | 1023.9 |
| 20260510013051 | 68 | 135 | 7.0 | 11.0 | 0.00 | 0.00 | 0.00 | 60 | 1024.0 |
| 20260510012550 | 68 | 135 | 12.0 | 12.0 | 0.00 | 0.00 | 0.00 | 60 | 1024.0 |
| 20260510012437 | 68 | 146 | 1.0 | 12.0 | 0.00 | 0.00 | 0.00 | 60 | 1024.0 |
| 20260510012024 | 68 | 157 | 10.0 | 11.0 | 0.00 | 0.00 | 0.00 | 60 | 1024.0 |
| 20260510011522 | 68 | 135 | 10.0 | 11.0 | 0.00 | 0.00 | 0.00 | 60 | 1024.3 |
| 20260510011020 | 68 | 90 | 10.0 | 10.0 | 0.00 | 0.00 | 0.00 | 60 | 1024.5 |
| 20260510010517 | 68 | 135 | 9.0 | 9.0 | 0.00 | 0.00 | 0.00 | 61 | 1024.6 |
| 20260510005512 | 67 | 135 | 7.0 | 11.0 | 0.00 | 0.00 | 0.00 | 62 | 1024.8 |
| 20260510005012 | 67 | 135 | 7.0 | 10.0 | 0.00 | 0.00 | 0.00 | 62 | 1025.0 |
| 20260510004508 | 67 | 135 | 7.0 | 10.0 | 0.00 | 0.00 | 0.00 | 62 | 1025.1 |
| 20260510004006 | 67 | 135 | 5.0 | 10.0 | 0.00 | 0.00 | 0.00 | 63 | 1025.2 |
| 20260510003504 | 67 | 135 | 7.0 | 12.0 | 0.00 | 0.00 | 0.00 | 63 | 1025.1 |
| 20260510003003 | 66 | 157 | 10.0 | 11.0 | 0.00 | 0.00 | 0.00 | 63 | 1025.1 |
| 20260510002501 | 66 | 157 | 6.0 | 10.0 | 0.00 | 0.00 | 0.00 | 63 | 1025.0 |
| 20260510001957 | 66 | 135 | 10.0 | 10.0 | 0.00 | 0.00 | 0.00 | 63 | 1025.0 |
| 20260510001454 | 66 | 157 | 10.0 | 11.0 | 0.00 | 0.00 | 0.00 | 63 | 1025.1 |
| 20260510000952 | 66 | 135 | 8.0 | 9.0 | 0.00 | 0.00 | 0.00 | 64 | 1025.4 |
| 20260510000450 | 65 | 135 | 10.0 | 10.0 | 0.00 | 0.00 | 0.00 | 64 | 1025.3 |
| 20260509235947 | 65 | 135 | 6.0 | 10.0 | 0.00 | 0.00 | 0.00 | 64 | 1025.4 |
| 20260509234944 | 65 | 157 | 9.0 | 10.0 | 0.00 | 0.00 | 0.00 | 64 | 1025.2 |
| 20260509233938 | 65 | 135 | 11.0 | 12.0 | 0.00 | 0.00 | 0.00 | 64 | 1025.1 |
| 20260509233433 | 65 | 135 | 8.0 | 11.0 | 0.00 | 0.00 | 0.00 | 64 | 1025.2 |
| 20260509232931 | 64 | 135 | 10.0 | 12.0 | 0.00 | 0.00 | 0.00 | 64 | 1025.0 |
| 20260509232429 | 64 | 135 | 10.0 | 11.0 | 0.00 | 0.00 | 0.00 | 64 | 1024.9 |
| 20260509231926 | 64 | 135 | 10.0 | 11.0 | 0.00 | 0.00 | 0.00 | 64 | 1024.9 |
| 20260509231424 | 64 | 135 | 8.0 | 11.0 | 0.00 | 0.00 | 0.00 | 64 | 1024.9 |
| 20260509230921 | 64 | 135 | 8.0 | 12.0 | 0.00 | 0.00 | 0.00 | 64 | 1024.9 |
| 20260509230419 | 63 | 135 | 10.0 | 10.0 | 0.00 | 0.00 | 0.00 | 65 | 1024.9 |
| 20260509225917 | 63 | 135 | 11.0 | 11.0 | 0.00 | 0.00 | 0.00 | 64 | 1024.8 |
| 20260509225415 | 63 | 135 | 11.0 | 11.0 | 0.00 | 0.00 | 0.00 | 64 | 1024.7 |
| 20260509224913 | 63 | 135 | 9.0 | 12.0 | 0.00 | 0.00 | 0.00 | 64 | 1024.6 |
| 20260509224411 | 62 | 135 | 8.0 | 13.0 | 0.00 | 0.00 | 0.00 | 64 | 1024.5 |
| 20260509223908 | 62 | 135 | 8.0 | 10.0 | 0.00 | 0.00 | 0.00 | 64 | 1024.3 |
| 20260509223406 | 62 | 168 | 8.0 | 11.0 | 0.00 | 0.00 | 0.00 | 64 | 1024.5 |
| 20260509222903 | 61 | 135 | 8.0 | 11.0 | 0.00 | 0.00 | 0.00 | 64 | 1024.3 |
| 20260509222401 | 61 | 146 | 10.0 | 12.0 | 0.00 | 0.00 | 0.00 | 65 | 1024.3 |
| 20260509221859 | 60 | 135 | 6.0 | 11.0 | 0.00 | 0.00 | 0.00 | 64 | 1024.1 |
| 20260509220851 | 60 | 135 | 10.0 | 12.0 | 0.00 | 0.00 | 0.00 | 65 | 1023.9 |
| 20260509220349 | 60 | 135 | 7.0 | 11.0 | 0.00 | 0.00 | 0.00 | 65 | 1024.0 |
| 20260509215847 | 60 | 157 | 7.0 | 11.0 | 0.00 | 0.00 | 0.00 | 65 | 1024.1 |
| 20260509215345 | 59 | 135 | 9.0 | 12.0 | 0.00 | 0.00 | 0.00 | 65 | 1023.9 |
| 20260509214842 | 59 | 135 | 7.0 | 10.0 | 0.00 | 0.00 | 0.00 | 66 | 1024.1 |
| 20260509214340 | 59 | 146 | 8.0 | 8.0 | 0.00 | 0.00 | 0.00 | 66 | 1024.2 |
| 20260509213837 | 59 | 157 | 6.0 | 9.0 | 0.00 | 0.00 | 0.00 | 66 | 1024.2 |
| 20260509213335 | 58 | 157 | 7.0 | 8.0 | 0.00 | 0.00 | 0.00 | 67 | 1024.1 |
| 20260509212833 | 58 | 146 | 6.0 | 8.0 | 0.00 | 0.00 | 0.00 | 67 | 1024.1 |
| 20260509212331 | 58 | 180 | 6.0 | 9.0 | 0.00 | 0.00 | 0.00 | 68 | 1023.9 |
| 20260509211828 | 58 | 135 | 7.0 | 9.0 | 0.00 | 0.00 | 0.00 | 69 | 1023.8 |
| 20260509211326 | 57 | 146 | 6.0 | 8.0 | 0.00 | 0.00 | 0.00 | 69 | 1023.7 |
| 20260509210824 | 57 | 135 | 7.0 | 7.0 | 0.00 | 0.00 | 0.00 | 69 | 1023.6 |
| 20260509210322 | 57 | 135 | 5.0 | 7.0 | 0.00 | 0.00 | 0.00 | 70 | 1023.4 |
| 20260509205819 | 57 | 168 | 4.0 | 7.0 | 0.00 | 0.00 | 0.00 | 69 | 1023.6 |
| 20260509205317 | 57 | 180 | 4.0 | 6.0 | 0.00 | 0.00 | 0.00 | 69 | 1023.6 |
| 20260509204814 | 56 | 157 | 4.0 | 6.0 | 0.00 | 0.00 | 0.00 | 69 | 1023.5 |
| 20260509204312 | 56 | 157 | 4.0 | 6.0 | 0.00 | 0.00 | 0.00 | 68 | 1023.3 |
| 20260509203811 | 56 | 157 | 4.0 | 6.0 | 0.00 | 0.00 | 0.00 | 68 | 1023.1 |
| 20260509203307 | 56 | 135 | 5.0 | 5.0 | 0.00 | 0.00 | 0.00 | 68 | 1022.9 |
| 20260509202805 | 56 | 168 | 3.0 | 6.0 | 0.00 | 0.00 | 0.00 | 68 | 1023.0 |
| 20260509202306 | 56 | 180 | 5.0 | 5.0 | 0.00 | 0.00 | 0.00 | 67 | 1022.8 |
| 20260509201803 | 56 | 135 | 4.0 | 5.0 | 0.00 | 0.00 | 0.00 | 67 | 1022.8 |
| 20260509201259 | 56 | 157 | 4.0 | 4.0 | 0.00 | 0.00 | 0.00 | 67 | 1023.0 |
| 20260509200757 | 56 | 135 | 3.0 | 4.0 | 0.00 | 0.00 | 0.00 | 67 | 1022.8 |
| 20260509200254 | 56 | 180 | 3.0 | 3.0 | 0.00 | 0.00 | 0.00 | 67 | 1023.1 |
| 20260509195751 | 56 | 180 | 1.0 | 2.0 | 0.00 | 0.00 | 0.00 | 67 | 1023.1 |
| 20260509195251 | 56 | 191 | 2.0 | 3.0 | 0.00 | 0.00 | 0.00 | 67 | 1023.1 |
| 20260509194747 | 56 | 180 | 2.0 | 3.0 | 0.00 | 0.00 | 0.00 | 67 | 1022.7 |
| 20260509194245 | 56 | 135 | 3.0 | 4.0 | 0.00 | 0.00 | 0.00 | 67 | 1022.7 |
| 20260509193742 | 56 | 135 | 2.0 | 4.0 | 0.00 | 0.00 | 0.00 | 67 | 1022.9 |
| 20260509193240 | 56 | 168 | 4.0 | 5.0 | 0.00 | 0.00 | 0.00 | 67 | 1022.5 |
| 20260509192738 | 56 | 180 | 4.0 | 4.0 | 0.00 | 0.00 | 0.00 | 67 | 1022.8 |
| 20260509192237 | 56 | 191 | 4.0 | 5.0 | 0.00 | 0.00 | 0.00 | 67 | 1022.6 |
| 20260509191734 | 56 | 180 | 3.0 | 5.0 | 0.00 | 0.00 | 0.00 | 67 | 1022.5 |
| 20260509191231 | 55 | 180 | 4.0 | 5.0 | 0.00 | 0.00 | 0.00 | 68 | 1022.4 |
| 20260509190728 | 55 | 157 | 3.0 | 5.0 | 0.00 | 0.00 | 0.00 | 68 | 1022.3 |
| 20260509190226 | 55 | 180 | 3.0 | 4.0 | 0.00 | 0.00 | 0.00 | 68 | 1022.3 |
| 20260509185724 | 55 | 157 | 3.0 | 4.0 | 0.00 | 0.00 | 0.00 | 68 | 1022.2 |
| 20260509185222 | 55 | 180 | 2.0 | 3.0 | 0.00 | 0.00 | 0.00 | 68 | 1022.4 |
| 20260509184720 | 55 | 180 | 2.0 | 4.0 | 0.00 | 0.00 | 0.00 | 68 | 1022.4 |
| 20260509183715 | 55 | 135 | 5.0 | 7.0 | 0.00 | 0.00 | 0.00 | 69 | 1022.1 |
| 20260509183213 | 55 | 180 | 6.0 | 6.0 | 0.00 | 0.00 | 0.00 | 69 | 1022.1 |
| 20260509182711 | 55 | 157 | 4.0 | 6.0 | 0.00 | 0.00 | 0.00 | 69 | 1022.1 |
| 20260509182208 | 55 | 168 | 4.0 | 6.0 | 0.00 | 0.00 | 0.00 | 69 | 1021.8 |
| 20260509181705 | 55 | 180 | 4.0 | 6.0 | 0.00 | 0.00 | 0.00 | 68 | 1021.6 |
| 20260509181203 | 55 | 180 | 4.0 | 5.0 | 0.00 | 0.00 | 0.00 | 68 | 1021.7 |
| 20260509180701 | 55 | 146 | 6.0 | 6.0 | 0.00 | 0.00 | 0.00 | 68 | 1021.7 |
| 20260509180159 | 55 | 191 | 3.0 | 3.0 | 0.00 | 0.00 | 0.00 | 67 | 1021.9 |
| 20260509175657 | 55 | 135 | 2.0 | 2.0 | 0.00 | 0.00 | 0.00 | 67 | 1021.9 |
| 20260509175154 | 55 | 180 | 1.0 | 2.0 | 0.00 | 0.00 | 0.00 | 67 | 1021.9 |
| 20260509174652 | 54 | 180 | 1.0 | 2.0 | 0.00 | 0.00 | 0.00 | 67 | 1021.8 |
| 20260509174150 | 54 | 180 | 1.0 | 3.0 | 0.00 | 0.00 | 0.00 | 67 | 1021.8 |
| 20260509173648 | 54 | 180 | 1.0 | 2.0 | 0.00 | 0.00 | 0.00 | 67 | 1021.7 |
| 20260509173145 | 54 | 225 | 0.0 | 1.0 | 0.00 | 0.00 | 0.00 | 66 | 1021.8 |
| 20260509172642 | 54 | 225 | 0.0 | 2.0 | 0.00 | 0.00 | 0.00 | 67 | 1021.7 |
| 20260509172140 | 54 | 180 | 2.0 | 2.0 | 0.00 | 0.00 | 0.00 | 66 | 1021.8 |
| 20260509171638 | 54 | 168 | 1.0 | 2.0 | 0.00 | 0.00 | 0.00 | 65 | 1022.0 |
| 20260509171136 | 54 | 180 | 1.0 | 2.0 | 0.00 | 0.00 | 0.00 | 65 | 1022.0 |
| 20260509170634 | 54 | 157 | 1.0 | 3.0 | 0.00 | 0.00 | 0.00 | 65 | 1022.0 |
| 20260509170132 | 54 | 180 | 2.0 | 4.0 | 0.00 | 0.00 | 0.00 | 65 | 1022.0 |
| 20260509165629 | 54 | 180 | 3.0 | 4.0 | 0.00 | 0.00 | 0.00 | 65 | 1021.9 |
| 20260509165127 | 55 | 180 | 3.0 | 3.0 | 0.00 | 0.00 | 0.00 | 64 | 1022.1 |
| 20260509164625 | 55 | 180 | 2.0 | 2.0 | 0.00 | 0.00 | 0.00 | 64 | 1022.2 |
| 20260509164122 | 55 | 180 | 2.0 | 3.0 | 0.00 | 0.00 | 0.00 | 64 | 1022.1 |
| 20260509163620 | 55 | 168 | 1.0 | 2.0 | 0.00 | 0.00 | 0.00 | 63 | 1022.1 |
| 20260509163117 | 55 | 202 | 2.0 | 4.0 | 0.00 | 0.00 | 0.00 | 64 | 1022.0 |
| 20260509162615 | 55 | 180 | 3.0 | 3.0 | 0.00 | 0.00 | 0.00 | 63 | 1021.9 |
| 20260509162113 | 55 | 180 | 2.0 | 3.0 | 0.00 | 0.00 | 0.00 | 63 | 1021.9 |
| 20260509161611 | 55 | 180 | 3.0 | 4.0 | 0.00 | 0.00 | 0.00 | 63 | 1021.8 |
| 20260509161109 | 55 | 180 | 3.0 | 4.0 | 0.00 | 0.00 | 0.00 | 63 | 1021.7 |
| 20260509160606 | 55 | 180 | 3.0 | 4.0 | 0.00 | 0.00 | 0.00 | 63 | 1021.9 |
| 20260509160104 | 55 | 180 | 4.0 | 4.0 | 0.00 | 0.00 | 0.00 | 63 | 1021.9 |
| 20260509155602 | 55 | 180 | 2.0 | 2.0 | 0.00 | 0.00 | 0.00 | 63 | 1022.0 |
| 20260509155059 | 55 | 180 | 2.0 | 2.0 | 0.00 | 0.00 | 0.00 | 63 | 1021.9 |
| 20260509154557 | 55 | 157 | 1.0 | 3.0 | 0.00 | 0.00 | 0.00 | 63 | 1022.0 |
| 20260509154054 | 55 | 180 | 2.0 | 3.0 | 0.00 | 0.00 | 0.00 | 63 | 1022.1 |
| 20260509153552 | 55 | 168 | 3.0 | 3.0 | 0.00 | 0.00 | 0.00 | 62 | 1022.1 |
| 20260509153050 | 55 | 157 | 2.0 | 3.0 | 0.00 | 0.00 | 0.00 | 62 | 1021.9 |
| 20260509152548 | 55 | 157 | 2.0 | 3.0 | 0.00 | 0.00 | 0.00 | 61 | 1021.9 |
| 20260509152046 | 55 | 180 | 2.0 | 3.0 | 0.00 | 0.00 | 0.00 | 61 | 1022.3 |
| 20260509151544 | 55 | 135 | 2.0 | 2.0 | 0.00 | 0.00 | 0.00 | 61 | 1022.3 |
| 20260509151041 | 55 | 135 | 1.0 | 3.0 | 0.00 | 0.00 | 0.00 | 60 | 1022.3 |
| 20260509150036 | 56 | 135 | 3.0 | 5.0 | 0.00 | 0.00 | 0.00 | 58 | 1022.1 |
| 20260509145534 | 56 | 180 | 3.0 | 5.0 | 0.00 | 0.00 | 0.00 | 58 | 1022.0 |
| 20260509145032 | 56 | 180 | 3.0 | 4.0 | 0.00 | 0.00 | 0.00 | 58 | 1022.2 |
| 20260509144529 | 56 | 180 | 2.0 | 2.0 | 0.00 | 0.00 | 0.00 | 57 | 1022.4 |
| 20260509144027 | 57 | 135 | 1.0 | 1.0 | 0.00 | 0.00 | 0.00 | 56 | 1022.3 |
| 20260509143525 | 57 | 157 | 1.0 | 3.0 | 0.00 | 0.00 | 0.00 | 56 | 1022.4 |
| 20260509143023 | 57 | 168 | 3.0 | 4.0 | 0.00 | 0.00 | 0.00 | 56 | 1022.4 |
| 20260509142521 | 57 | 135 | 3.0 | 3.0 | 0.00 | 0.00 | 0.00 | 56 | 1022.3 |
| 20260509142018 | 57 | 101 | 2.0 | 2.0 | 0.00 | 0.00 | 0.00 | 55 | 1022.1 |
| 20260509141516 | 57 | 112 | 2.0 | 2.0 | 0.00 | 0.00 | 0.00 | 55 | 1022.1 |
| 20260509141014 | 57 | 135 | 1.0 | 2.0 | 0.00 | 0.00 | 0.00 | 54 | 1022.2 |
| 20260509140511 | 57 | 135 | 2.0 | 3.0 | 0.00 | 0.00 | 0.00 | 54 | 1022.1 |
| 20260509140009 | 58 | 157 | 1.0 | 2.0 | 0.00 | 0.00 | 0.00 | 53 | 1022.0 |
| 20260509135506 | 58 | 157 | 2.0 | 4.0 | 0.00 | 0.00 | 0.00 | 53 | 1022.0 |
| 20260509135004 | 58 | 180 | 3.0 | 5.0 | 0.00 | 0.00 | 0.00 | 53 | 1022.1 |
| 20260509134502 | 58 | 180 | 3.0 | 4.0 | 0.00 | 0.00 | 0.00 | 54 | 1022.3 |
| 20260509134000 | 58 | 135 | 4.0 | 4.0 | 0.00 | 0.00 | 0.00 | 54 | 1022.1 |
| 20260509133458 | 58 | 101 | 4.0 | 4.0 | 0.00 | 0.00 | 0.00 | 54 | 1022.2 |
| 20260509132955 | 58 | 112 | 4.0 | 6.0 | 0.00 | 0.00 | 0.00 | 54 | 1022.2 |
| 20260509132453 | 58 | 112 | 3.0 | 6.0 | 0.00 | 0.00 | 0.00 | 54 | 1022.2 |
| 20260509131951 | 57 | 157 | 4.0 | 5.0 | 0.00 | 0.00 | 0.00 | 53 | 1022.0 |
| 20260509131448 | 57 | 112 | 4.0 | 4.0 | 0.00 | 0.00 | 0.00 | 53 | 1022.0 |
| 20260509130444 | 57 | 146 | 4.0 | 4.0 | 0.00 | 0.00 | 0.00 | 52 | 1022.0 |
| 20260509125941 | 58 | 135 | 4.0 | 5.0 | 0.00 | 0.00 | 0.00 | 52 | 1022.0 |
| 20260509125441 | 58 | 135 | 4.0 | 5.0 | 0.00 | 0.00 | 0.00 | 52 | 1021.9 |
| 20260509124937 | 58 | 157 | 4.0 | 4.0 | 0.00 | 0.00 | 0.00 | 51 | 1021.6 |
| 20260509124435 | 59 | 146 | 4.0 | 4.0 | 0.00 | 0.00 | 0.00 | 51 | 1021.5 |
| 20260509123933 | 59 | 180 | 5.0 | 5.0 | 0.00 | 0.00 | 0.00 | 51 | 1021.5 |
| 20260509123431 | 59 | 168 | 4.0 | 5.0 | 0.00 | 0.00 | 0.00 | 50 | 1021.5 |
| 20260509122931 | 59 | 157 | 4.0 | 4.0 | 0.00 | 0.00 | 0.00 | 50 | 1021.4 |
| 20260509122425 | 60 | 191 | 3.0 | 4.0 | 0.00 | 0.00 | 0.00 | 50 | 1021.4 |
| 20260509121923 | 60 | 180 | 3.0 | 4.0 | 0.00 | 0.00 | 0.00 | 49 | 1021.5 |
| 20260509121421 | 60 | 135 | 4.0 | 4.0 | 0.00 | 0.00 | 0.00 | 49 | 1021.4 |
| 20260509120918 | 60 | 168 | 4.0 | 4.0 | 0.00 | 0.00 | 0.00 | 48 | 1021.5 |
| 20260509120416 | 60 | 157 | 3.0 | 4.0 | 0.00 | 0.00 | 0.00 | 48 | 1021.3 |
| 20260509115914 | 61 | 180 | 3.0 | 3.0 | 0.00 | 0.00 | 0.00 | 48 | 1021.4 |
| 20260509115412 | 61 | 146 | 3.0 | 3.0 | 0.00 | 0.00 | 0.00 | 48 | 1021.4 |
| 20260509114910 | 61 | 135 | 3.0 | 4.0 | 0.00 | 0.00 | 0.00 | 48 | 1021.4 |
| 20260509114407 | 61 | 135 | 3.0 | 4.0 | 0.00 | 0.00 | 0.00 | 48 | 1021.3 |
| 20260509113905 | 61 | 135 | 3.0 | 4.0 | 0.00 | 0.00 | 0.00 | 48 | 1021.4 |
| 20260509113402 | 61 | 135 | 3.0 | 4.0 | 0.00 | 0.00 | 0.00 | 48 | 1021.4 |
| 20260509112900 | 61 | 135 | 3.0 | 3.0 | 0.00 | 0.00 | 0.00 | 48 | 1021.3 |
| 20260509112358 | 61 | 146 | 3.0 | 4.0 | 0.00 | 0.00 | 0.00 | 48 | 1021.4 |
| 20260509111855 | 61 | 135 | 3.0 | 4.0 | 0.00 | 0.00 | 0.00 | 47 | 1021.3 |
| 20260509111353 | 61 | 135 | 3.0 | 4.0 | 0.00 | 0.00 | 0.00 | 47 | 1021.3 |
| 20260509110851 | 61 | 135 | 3.0 | 4.0 | 0.00 | 0.00 | 0.00 | 47 | 1021.3 |
| 20260509110349 | 61 | 123 | 3.0 | 4.0 | 0.00 | 0.00 | 0.00 | 47 | 1021.4 |
| 20260509105847 | 61 | 135 | 3.0 | 4.0 | 0.00 | 0.00 | 0.00 | 47 | 1021.4 |
| 20260509105345 | 61 | 135 | 3.0 | 3.0 | 0.00 | 0.00 | 0.00 | 47 | 1021.4 |
| 20260509104842 | 61 | 135 | 3.0 | 3.0 | 0.00 | 0.00 | 0.00 | 47 | 1021.5 |
| 20260509104339 | 61 | 157 | 2.0 | 3.0 | 0.00 | 0.00 | 0.00 | 47 | 1021.4 |
| 20260509103837 | 62 | 135 | 3.0 | 3.0 | 0.00 | 0.00 | 0.00 | 47 | 1021.4 |
| 20260509103335 | 62 | 157 | 3.0 | 3.0 | 0.00 | 0.00 | 0.00 | 46 | 1021.5 |
| 20260509102833 | 62 | 135 | 3.0 | 3.0 | 0.00 | 0.00 | 0.00 | 46 | 1021.4 |
| 20260509102330 | 62 | 135 | 2.0 | 3.0 | 0.00 | 0.00 | 0.00 | 46 | 1021.4 |
| 20260509101828 | 62 | 135 | 3.0 | 3.0 | 0.00 | 0.00 | 0.00 | 46 | 1021.4 |
| 20260509101326 | 62 | 157 | 2.0 | 3.0 | 0.00 | 0.00 | 0.00 | 46 | 1021.3 |
| 20260509100824 | 62 | 135 | 3.0 | 3.0 | 0.00 | 0.00 | 0.00 | 46 | 1021.2 |
| 20260509100321 | 62 | 112 | 3.0 | 4.0 | 0.00 | 0.00 | 0.00 | 46 | 1021.3 |
| 20260509095819 | 62 | 135 | 3.0 | 4.0 | 0.00 | 0.00 | 0.00 | 45 | 1021.3 |
| 20260509095316 | 62 | 135 | 4.0 | 4.0 | 0.00 | 0.00 | 0.00 | 45 | 1021.3 |
| 20260509094814 | 62 | 135 | 3.0 | 4.0 | 0.00 | 0.00 | 0.00 | 45 | 1021.2 |
| 20260509094312 | 62 | 168 | 3.0 | 4.0 | 0.00 | 0.00 | 0.00 | 44 | 1021.1 |
| 20260509093812 | 62 | 135 | 3.0 | 3.0 | 0.00 | 0.00 | 0.00 | 44 | 1021.1 |
| 20260509093307 | 62 | 135 | 3.0 | 3.0 | 0.00 | 0.00 | 0.00 | 44 | 1021.0 |
| 20260509092805 | 63 | 135 | 1.0 | 2.0 | 0.00 | 0.00 | 0.00 | 43 | 1020.8 |
| 20260509092305 | 63 | 135 | 2.0 | 2.0 | 0.00 | 0.00 | 0.00 | 42 | 1020.7 |
| 20260509091801 | 64 | 135 | 2.0 | 3.0 | 0.00 | 0.00 | 0.00 | 42 | 1020.6 |
| 20260509091259 | 64 | 157 | 3.0 | 3.0 | 0.00 | 0.00 | 0.00 | 42 | 1020.5 |
| 20260509090756 | 65 | 180 | 3.0 | 3.0 | 0.00 | 0.00 | 0.00 | 41 | 1020.5 |
| 20260509090253 | 65 | 157 | 3.0 | 3.0 | 0.00 | 0.00 | 0.00 | 41 | 1020.4 |
| 20260509085751 | 65 | 168 | 3.0 | 3.0 | 0.00 | 0.00 | 0.00 | 41 | 1020.3 |
| 20260509085249 | 65 | 168 | 2.0 | 3.0 | 0.00 | 0.00 | 0.00 | 40 | 1020.2 |
| 20260509084747 | 66 | 180 | 2.0 | 3.0 | 0.00 | 0.00 | 0.00 | 40 | 1020.1 |
| 20260509084245 | 66 | 168 | 2.0 | 3.0 | 0.00 | 0.00 | 0.00 | 40 | 1020.0 |
| 20260509083742 | 66 | 180 | 3.0 | 3.0 | 0.00 | 0.00 | 0.00 | 39 | 1019.9 |
| 20260509083240 | 67 | 191 | 3.0 | 3.0 | 0.00 | 0.00 | 0.00 | 39 | 1019.9 |
| 20260509082738 | 67 | 180 | 3.0 | 3.0 | 0.00 | 0.00 | 0.00 | 39 | 1019.8 |
| 20260509082236 | 67 | 180 | 2.0 | 3.0 | 0.00 | 0.00 | 0.00 | 38 | 1019.6 |
| 20260509081737 | 68 | 180 | 2.0 | 3.0 | 0.00 | 0.00 | 0.00 | 38 | 1019.6 |
| 20260509081232 | 69 | 180 | 2.0 | 3.0 | 0.00 | 0.00 | 0.00 | 37 | 1019.5 |
| 20260509080728 | 69 | 180 | 2.0 | 3.0 | 0.00 | 0.00 | 0.00 | 37 | 1019.5 |
| 20260509080226 | 69 | 180 | 2.0 | 4.0 | 0.00 | 0.00 | 0.00 | 36 | 1019.4 |
| 20260509075724 | 70 | 180 | 3.0 | 4.0 | 0.00 | 0.00 | 0.00 | 36 | 1019.3 |
| 20260509075222 | 70 | 180 | 3.0 | 3.0 | 0.00 | 0.00 | 0.00 | 35 | 1019.2 |
| 20260509074720 | 71 | 180 | 3.0 | 3.0 | 0.00 | 0.00 | 0.00 | 34 | 1019.2 |
| 20260509074220 | 71 | 180 | 3.0 | 3.0 | 0.00 | 0.00 | 0.00 | 34 | 1019.1 |
| 20260509073718 | 72 | 157 | 2.0 | 3.0 | 0.00 | 0.00 | 0.00 | 33 | 1019.1 |
| 20260509073214 | 72 | 168 | 3.0 | 3.0 | 0.00 | 0.00 | 0.00 | 33 | 1019.0 |
| 20260509072712 | 73 | 180 | 3.0 | 4.0 | 0.00 | 0.00 | 0.00 | 32 | 1018.9 |
| 20260509072209 | 73 | 135 | 3.0 | 6.0 | 0.00 | 0.00 | 0.00 | 32 | 1018.8 |
| 20260509071707 | 74 | 112 | 6.0 | 6.0 | 0.00 | 0.00 | 0.00 | 31 | 1018.7 |
| 20260509071204 | 74 | 112 | 6.0 | 8.0 | 0.00 | 0.00 | 0.00 | 31 | 1018.6 |
| 20260509070704 | 74 | 135 | 5.0 | 9.0 | 0.00 | 0.00 | 0.00 | 30 | 1018.5 |
| 20260509070200 | 75 | 135 | 6.0 | 6.0 | 0.00 | 0.00 | 0.00 | 30 | 1018.4 |
| 20260509065659 | 75 | 90 | 6.0 | 8.0 | 0.00 | 0.00 | 0.00 | 30 | 1018.4 |
| 20260509065156 | 75 | 90 | 7.0 | 9.0 | 0.00 | 0.00 | 0.00 | 29 | 1018.4 |
| 20260509064654 | 76 | 90 | 8.0 | 10.0 | 0.00 | 0.00 | 0.00 | 29 | 1018.5 |
| 20260509064152 | 76 | 135 | 7.0 | 10.0 | 0.00 | 0.00 | 0.00 | 29 | 1018.4 |
| 20260509063651 | 76 | 135 | 6.0 | 9.0 | 0.00 | 0.00 | 0.00 | 29 | 1018.3 |
| 20260509063147 | 76 | 135 | 6.0 | 9.0 | 0.00 | 0.00 | 0.00 | 28 | 1018.3 |
| 20260509062644 | 76 | 90 | 8.0 | 9.0 | 0.00 | 0.00 | 0.00 | 28 | 1018.2 |
| 20260509062142 | 76 | 135 | 6.0 | 10.0 | 0.00 | 0.00 | 0.00 | 28 | 1018.2 |
| 20260509061639 | 77 | 135 | 7.0 | 10.0 | 0.00 | 0.00 | 0.00 | 28 | 1018.2 |
| 20260509061138 | 77 | 135 | 7.0 | 12.0 | 0.00 | 0.00 | 0.00 | 28 | 1018.1 |
| 20260509060635 | 77 | 135 | 10.0 | 12.0 | 0.00 | 0.00 | 0.00 | 28 | 1018.0 |
| 20260509060134 | 77 | 135 | 5.0 | 10.0 | 0.00 | 0.00 | 0.00 | 29 | 1018.1 |
| 20260509055632 | 77 | 135 | 12.0 | 13.0 | 0.00 | 0.00 | 0.00 | 29 | 1018.0 |
| 20260509055130 | 77 | 135 | 8.0 | 11.0 | 0.00 | 0.00 | 0.00 | 28 | 1017.9 |
| 20260509054626 | 77 | 112 | 12.0 | 13.0 | 0.00 | 0.00 | 0.00 | 28 | 1017.9 |
| 20260509054123 | 77 | 180 | 6.0 | 10.0 | 0.00 | 0.00 | 0.00 | 29 | 1017.9 |
| 20260509053622 | 77 | 112 | 5.0 | 11.0 | 0.00 | 0.00 | 0.00 | 29 | 1017.8 |
| 20260509053119 | 77 | 146 | 10.0 | 10.0 | 0.00 | 0.00 | 0.00 | 29 | 1017.8 |
| 20260509052620 | 77 | 90 | 7.0 | 10.0 | 0.00 | 0.00 | 0.00 | 28 | 1017.8 |
| 20260509052114 | 77 | 90 | 7.0 | 11.0 | 0.00 | 0.00 | 0.00 | 29 | 1017.9 |